FW8901 Weather Reports


time (UTC)temp
F
wind
direction
speed
knots
gust
knots
rain 1hr
in
rain 24hr
in
rain mn
in
humidity
%
barometer
mb
20260510160548 79 0.0 0.0 0.00 0.00 0.00 41 1013.9
20260510160050 79 0.0 0.0 0.00 0.00 0.00 41 1013.9
20260510155546 78 0.0 0.0 0.00 0.00 0.00 44 1014.0
20260510155048 77 0.0 0.0 0.00 0.00 0.00 43 1013.9
20260510154600 77 0.0 0.0 0.00 0.00 0.00 41 1014.0
20260510154047 78 0.0 0.0 0.00 0.00 0.00 45 1014.0
20260510153546 77 0.0 0.0 0.00 0.00 0.00 45 1014.1
20260510153059 77 0.0 0.0 0.00 0.00 0.00 45 1014.1
20260510152547 77 0.0 0.0 0.00 0.00 0.00 47 1014.1
20260510152048 76 0.0 0.0 0.00 0.00 0.00 47 1014.1
20260510151555 76 0.0 0.0 0.00 0.00 0.00 47 1014.0
20260510151048 75 0.0 0.0 0.00 0.00 0.00 46 1014.0
20260510150547 75 0.0 0.0 0.00 0.00 0.00 48 1014.1
20260510150057 75 0.0 0.0 0.00 0.00 0.00 49 1014.0
20260510145548 75 0.0 0.0 0.00 0.00 0.00 49 1014.0
20260510145102 74 0.0 0.0 0.00 0.00 0.00 50 1014.0
20260510144601 74 0.0 0.0 0.00 0.00 0.00 52 1014.0
20260510144048 73 0.0 0.0 0.00 0.00 0.00 50 1013.9
20260510143547 73 0.0 0.0 0.00 0.00 0.00 48 1013.8
20260510143057 73 0.0 0.0 0.00 0.00 0.00 51 1013.8
20260510142604 72 0.0 0.0 0.00 0.00 0.00 51 1013.8
20260510142047 72 0.0 0.0 0.00 0.00 0.00 52 1013.7
20260510141552 71 0.0 0.0 0.00 0.00 0.00 55 1013.7
20260510141049 70 0.0 0.0 0.00 0.00 0.00 59 1013.6
20260510140548 68 0.0 0.0 0.00 0.00 0.00 57 1013.6
20260510140053 68 0.0 0.0 0.00 0.00 0.00 57 1013.6
20260510135548 68 0.0 0.0 0.00 0.00 0.00 61 1013.4
20260510135045 67 0.0 0.0 0.00 0.00 0.00 60 1013.5
20260510134552 65 0.0 0.0 0.00 0.00 0.00 64 1013.5
20260510134047 64 0.0 0.0 0.00 0.00 0.00 67 1013.5
20260510133547 64 0.0 0.0 0.00 0.00 0.00 68 1013.6
20260510133053 63 0.0 0.0 0.00 0.00 0.00 70 1013.5
20260510132549 62 0.0 0.0 0.00 0.00 0.00 71 1013.5
20260510132049 62 0.0 0.0 0.00 0.00 0.00 74 1013.5
20260510131553 61 0.0 0.0 0.00 0.00 0.00 76 1013.4
20260510131049 60 0.0 0.0 0.00 0.00 0.00 78 1013.5
20260510130549 60 0.0 0.0 0.00 0.00 0.00 81 1013.4
20260510130054 59 0.0 0.0 0.00 0.00 0.00 81 1013.5
20260510125544 59 0.0 0.0 0.00 0.00 0.00 82 1013.5
20260510125049 58 0.0 0.0 0.00 0.00 0.00 84 1013.6
20260510124552 57 0.0 0.0 0.00 0.00 0.00 85 1013.6
20260510124052 57 0.0 0.0 0.00 0.00 0.00 87 1013.7
20260510123548 56 0.0 0.0 0.00 0.00 0.00 88 1013.7
20260510123053 56 0.0 0.0 0.00 0.00 0.00 89 1013.6
20260510122549 55 0.0 0.0 0.00 0.00 0.00 89 1013.6
20260510122044 55 0.0 0.0 0.00 0.00 0.00 90 1013.6
20260510121555 55 0.0 0.0 0.00 0.00 0.00 91 1013.5
20260510121049 54 0.0 0.0 0.00 0.00 0.00 91 1013.5
20260510120547 54 0.0 0.0 0.00 0.00 0.00 91 1013.5
20260510120054 54 0.0 0.0 0.00 0.00 0.00 91 1013.5
20260510115548 53 0.0 0.0 0.00 0.00 0.00 91 1013.4
20260510115047 53 0.0 0.0 0.00 0.00 0.00 90 1013.3
20260510114617 53 0.0 0.0 0.00 0.00 0.00 90 1013.2
20260510114049 53 0.0 0.0 0.00 0.00 0.00 90 1013.2
20260510113548 53 0.0 0.0 0.00 0.00 0.00 90 1013.2
20260510113058 53 0.0 0.0 0.00 0.00 0.00 90 1013.1
20260510112548 52 0.0 0.0 0.00 0.00 0.00 90 1013.0
20260510112049 52 0.0 0.0 0.00 0.00 0.00 89 1012.9
20260510111554 52 0.0 0.0 0.00 0.00 0.00 89 1012.8
20260510111048 52 0.0 0.0 0.00 0.00 0.00 89 1012.6
20260510110556 52 0.0 0.0 0.00 0.00 0.00 89 1012.5
20260510110057 52 0.0 0.0 0.00 0.00 0.00 89 1012.4
20260510105548 52 0.0 0.0 0.00 0.00 0.00 88 1012.3
20260510105048 52 0.0 0.0 0.00 0.00 0.00 88 1012.4
20260510104555 52 0.0 0.0 0.00 0.00 0.00 88 1012.2
20260510104047 52 0.0 0.0 0.00 0.00 0.00 88 1012.2
20260510103549 52 0.0 0.0 0.00 0.00 0.00 88 1012.1
20260510103057 52 0.0 0.0 0.00 0.00 0.00 88 1012.1
20260510102548 52 0.0 0.0 0.00 0.00 0.00 88 1012.1
20260510102123 52 0.0 0.0 0.00 0.00 0.00 88 1012.1
20260510101048 53 0.0 0.0 0.00 0.00 0.00 88 1012.0
20260510100548 53 0.0 0.0 0.00 0.00 0.00 88 1011.9
20260510095552 53 0.0 0.0 0.00 0.00 0.00 88 1011.9
20260510095048 53 0.0 0.0 0.00 0.00 0.00 88 1012.0
20260510094555 53 0.0 0.0 0.00 0.00 0.00 88 1011.9
20260510094050 53 0.0 0.0 0.00 0.00 0.00 88 1011.9
20260510093548 53 0.0 0.0 0.00 0.00 0.00 88 1011.8
20260510093052 53 0.0 0.0 0.00 0.00 0.00 88 1011.7
20260510092550 53 0.0 0.0 0.00 0.00 0.00 88 1011.7
20260510092047 53 0.0 0.0 0.00 0.00 0.00 88 1011.6
20260510091554 53 0.0 0.0 0.00 0.00 0.00 88 1011.6
20260510091048 53 0.0 0.0 0.00 0.00 0.00 88 1011.5
20260510090548 53 0.0 0.0 0.00 0.00 0.00 88 1011.6
20260510090114 53 0.0 0.0 0.00 0.00 0.00 88 1011.5
20260510085547 53 0.0 0.0 0.00 0.00 0.00 87 1011.5
20260510085047 53 0.0 0.0 0.00 0.00 0.00 87 1011.5
20260510084607 53 0.0 0.0 0.00 0.00 0.00 87 1011.4
20260510084048 53 0.0 0.0 0.00 0.00 0.00 87 1011.4
20260510083547 53 0.0 0.0 0.00 0.00 0.00 87 1011.4
20260510083054 53 0.0 0.0 0.00 0.00 0.00 87 1011.4
20260510082546 54 0.0 0.0 0.00 0.00 0.00 87 1011.4
20260510082048 54 0.0 0.0 0.00 0.00 0.00 86 1011.3
20260510081604 54 0.0 0.0 0.00 0.00 0.00 86 1011.4
20260510081048 54 0.0 0.0 0.00 0.00 0.00 86 1011.3
20260510080548 54 0.0 0.0 0.00 0.00 0.00 86 1011.3
20260510075547 54 0.0 0.0 0.00 0.00 0.00 85 1011.1
20260510075048 54 0.0 0.0 0.00 0.00 0.00 85 1011.1
20260510074556 54 0.0 0.0 0.00 0.00 0.00 85 1011.0
20260510074049 55 0.0 0.0 0.00 0.00 0.00 85 1010.9
20260510073548 55 0.0 0.0 0.00 0.00 0.00 84 1010.9
20260510073058 55 0.0 0.0 0.00 0.00 0.00 84 1010.8
20260510072548 55 0.0 0.0 0.00 0.00 0.00 84 1010.8
20260510072049 55 0.0 0.0 0.00 0.00 0.00 84 1010.8
20260510071557 55 0.0 0.0 0.00 0.00 0.00 84 1010.8
20260510071047 55 0.0 0.0 0.00 0.00 0.00 83 1010.6
20260510070546 56 0.0 0.0 0.00 0.00 0.00 83 1010.6
20260510070103 56 0.0 0.0 0.00 0.00 0.00 83 1010.4
20260510065546 56 0.0 0.0 0.00 0.00 0.00 83 1010.5
20260510065048 56 0.0 0.0 0.00 0.00 0.00 83 1010.4
20260510064556 56 0.0 0.0 0.00 0.00 0.00 83 1010.4
20260510064048 56 0.0 0.0 0.00 0.00 0.00 83 1010.4
20260510063549 56 0.0 0.0 0.00 0.00 0.00 82 1010.3
20260510063053 56 0.0 0.0 0.00 0.00 0.00 82 1010.3
20260510062548 57 0.0 0.0 0.00 0.00 0.00 82 1010.2
20260510062047 57 0.0 0.0 0.00 0.00 0.00 82 1010.2
20260510061555 57 0.0 0.0 0.00 0.00 0.00 82 1010.2
20260510061051 57 0.0 0.0 0.00 0.00 0.00 82 1010.2
20260510060602 57 0.0 0.0 0.00 0.00 0.00 81 1010.3
20260510060100 57 0.0 0.0 0.00 0.00 0.00 81 1010.3
20260510055549 57 0.0 0.0 0.00 0.00 0.00 81 1010.4
20260510055047 57 0.0 0.0 0.00 0.00 0.00 81 1010.4
20260510054553 58 0.0 0.0 0.00 0.00 0.00 81 1010.4
20260510054049 58 0.0 0.0 0.00 0.00 0.00 81 1010.5
20260510053547 58 0.0 0.0 0.00 0.00 0.00 81 1010.3
20260510053059 58 0.0 0.0 0.00 0.00 0.00 81 1010.4
20260510052546 58 0.0 0.0 0.00 0.00 0.00 81 1010.4
20260510052046 58 0.0 0.0 0.00 0.00 0.00 81 1010.4
20260510051607 58 0.0 0.0 0.00 0.00 0.00 80 1010.4
20260510051057 58 0.0 0.0 0.00 0.00 0.00 80 1010.3
20260510050551 58 0.0 0.0 0.00 0.00 0.00 80 1010.4
20260510050105 58 0.0 0.0 0.00 0.00 0.00 80 1010.4
20260510045548 58 0.0 0.0 0.00 0.00 0.00 80 1010.4
20260510045049 58 0.0 0.0 0.00 0.00 0.00 80 1010.4
20260510044552 59 0.0 0.0 0.00 0.00 0.00 80 1010.3
20260510044048 59 0.0 0.0 0.00 0.00 0.00 80 1010.2
20260510043548 59 0.0 0.0 0.00 0.00 0.00 80 1010.2
20260510043054 59 0.0 0.0 0.00 0.00 0.00 80 1010.2
20260510042549 59 0.0 0.0 0.00 0.00 0.00 80 1010.1
20260510042048 59 0.0 0.0 0.00 0.00 0.00 80 1010.1
20260510041605 59 0.0 0.0 0.00 0.00 0.00 80 1010.1
20260510041049 59 0.0 0.0 0.00 0.00 0.00 79 1010.1
20260510040551 59 0.0 0.0 0.00 0.00 0.00 79 1010.2
20260510040107 60 0.0 0.0 0.00 0.00 0.00 79 1010.3
20260510035549 60 0.0 0.0 0.00 0.00 0.00 79 1010.2
20260510035048 60 0.0 0.0 0.00 0.00 0.00 79 1010.2
20260510034553 60 0.0 0.0 0.00 0.00 0.00 78 1010.3
20260510034049 60 0.0 0.0 0.00 0.00 0.00 78 1010.3
20260510033547 60 0.0 0.0 0.00 0.00 0.00 78 1010.3
20260510033107 60 0.0 0.0 0.00 0.00 0.00 78 1010.2
20260510032545 60 0.0 0.0 0.00 0.00 0.00 78 1010.2
20260510032049 61 0.0 0.0 0.00 0.00 0.00 78 1010.2
20260510031559 61 0.0 0.0 0.00 0.00 0.00 77 1010.1
20260510031049 61 0.0 0.0 0.00 0.00 0.00 76 1009.9
20260510030544 61 0.0 0.0 0.00 0.00 0.00 77 1010.0
20260510025548 61 0.0 0.0 0.00 0.00 0.00 76 1009.9
20260510025049 61 0.0 0.0 0.00 0.00 0.00 76 1009.9
20260510024551 62 0.0 0.0 0.00 0.00 0.00 75 1010.0
20260510024048 62 0.0 0.0 0.00 0.00 0.00 76 1009.8
20260510023548 62 0.0 0.0 0.00 0.00 0.00 75 1009.7
20260510023054 62 0.0 0.0 0.00 0.00 0.00 74 1009.7
20260510022554 62 0.0 0.0 0.00 0.00 0.00 74 1009.8
20260510022050 62 0.0 0.0 0.00 0.00 0.00 74 1009.8
20260510021642 62 0.0 0.0 0.00 0.00 0.00 73 1009.7
20260510021049 63 0.0 0.0 0.00 0.00 0.00 73 1009.7
20260510020550 63 0.0 0.0 0.00 0.00 0.00 73 1009.6
20260510020059 63 0.0 0.0 0.00 0.00 0.00 72 1009.6
20260510015552 63 0.0 0.0 0.00 0.00 0.00 72 1009.5
20260510015050 63 0.0 0.0 0.00 0.00 0.00 72 1009.4
20260510014600 64 0.0 0.0 0.00 0.00 0.00 72 1009.4
20260510014049 64 0.0 0.0 0.00 0.00 0.00 72 1009.3
20260510013550 64 0.0 0.0 0.00 0.00 0.00 71 1009.3
20260510013107 64 0.0 0.0 0.00 0.00 0.00 71 1009.3
20260510012549 64 0.0 0.0 0.00 0.00 0.00 71 1009.2
20260510012049 65 0.0 0.0 0.00 0.00 0.00 70 1008.9
20260510011555 65 0.0 0.0 0.00 0.00 0.00 70 1008.9
20260510011048 65 0.0 0.0 0.00 0.00 0.00 70 1008.8
20260510010549 65 0.0 0.0 0.00 0.00 0.00 69 1008.7
20260510010100 66 0.0 0.0 0.00 0.00 0.00 69 1008.7
20260510005550 66 0.0 0.0 0.00 0.00 0.00 69 1008.7
20260510005049 66 0.0 0.0 0.00 0.00 0.00 68 1008.6
20260510004605 67 0.0 0.0 0.00 0.00 0.00 68 1008.6
20260510004049 67 0.0 0.0 0.00 0.00 0.00 68 1008.6
20260510003550 67 0.0 0.0 0.00 0.00 0.00 68 1008.4
20260510003103 68 0.0 0.0 0.00 0.00 0.00 67 1008.3
20260510002555 68 0.0 0.0 0.00 0.00 0.00 66 1008.4
20260510002049 68 0.0 0.0 0.00 0.00 0.00 66 1008.4
20260510001603 69 0.0 0.0 0.00 0.00 0.00 66 1008.5
20260510001049 69 0.0 0.0 0.00 0.00 0.00 65 1008.3
20260510000550 69 0.0 0.0 0.00 0.00 0.00 65 1008.3
20260510000055 70 0.0 0.0 0.00 0.00 0.00 64 1008.3
20260509235546 70 0.0 0.0 0.00 0.00 0.00 64 1008.2
20260509235049 70 0.0 0.0 0.00 0.00 0.00 62 1008.1
20260509234555 71 0.0 0.0 0.00 0.00 0.00 60 1008.1
20260509234109 71 0.0 0.0 0.00 0.00 0.00 60 1008.1
20260509233550 71 0.0 0.0 0.00 0.00 0.00 61 1008.0
20260509233054 72 0.0 0.0 0.00 0.00 0.00 60 1008.0
20260509232550 72 0.0 0.0 0.00 0.00 0.00 59 1008.0
20260509232050 72 0.0 0.0 0.00 0.00 0.00 59 1008.0
20260509231553 72 0.0 0.0 0.00 0.00 0.00 59 1008.0
20260509231049 73 0.0 0.0 0.00 0.00 0.00 58 1008.0
20260509230548 73 0.0 0.0 0.00 0.00 0.00 58 1008.0
20260509230054 73 0.0 0.0 0.00 0.00 0.00 58 1008.0
20260509225548 73 0.0 0.0 0.00 0.00 0.00 57 1007.9
20260509225049 73 0.0 0.0 0.00 0.00 0.00 59 1008.0
20260509224553 73 0.0 0.0 0.00 0.00 0.00 58 1008.0
20260509224047 73 0.0 0.0 0.00 0.00 0.00 57 1008.0
20260509223549 73 0.0 0.0 0.00 0.00 0.00 57 1008.0
20260509223057 73 0.0 0.0 0.00 0.00 0.00 58 1008.0
20260509222550 72 0.0 0.0 0.00 0.00 0.00 58 1008.1
20260509222049 73 0.0 0.0 0.00 0.00 0.00 58 1008.2
20260509221556 73 0.0 0.0 0.00 0.00 0.00 56 1008.0
20260509221048 73 0.0 0.0 0.00 0.00 0.00 56 1008.1
20260509220546 73 0.0 0.0 0.00 0.00 0.00 53 1008.1
20260509220058 73 0.0 0.0 0.00 0.00 0.00 55 1008.1
20260509215547 73 0.0 0.0 0.00 0.00 0.00 53 1008.1
20260509215047 73 0.0 0.0 0.00 0.00 0.00 53 1008.0
20260509214556 73 0.0 0.0 0.00 0.00 0.00 52 1008.1
20260509214046 73 0.0 0.0 0.00 0.00 0.00 52 1008.0
20260509213549 73 0.0 0.0 0.00 0.00 0.00 53 1008.0
20260509213114 73 0.0 0.0 0.00 0.00 0.00 50 1008.0
20260509212547 73 0.0 0.0 0.00 0.00 0.00 49 1007.9
20260509212048 74 0.0 0.0 0.00 0.00 0.00 50 1007.9
20260509211604 74 0.0 0.0 0.00 0.00 0.00 48 1007.9
20260509211048 74 0.0 0.0 0.00 0.00 0.00 49 1007.7
20260509210548 75 0.0 0.0 0.00 0.00 0.00 48 1007.7
20260509210056 75 0.0 0.0 0.00 0.00 0.00 52 1007.7
20260509205549 74 0.0 0.0 0.00 0.00 0.00 50 1007.7
20260509205051 75 0.0 0.0 0.00 0.00 0.00 48 1007.8
20260509204558 76 0.0 0.0 0.00 0.00 0.00 51 1007.7
20260509204048 75 0.0 0.0 0.00 0.00 0.00 50 1007.7
20260509203549 75 0.0 0.0 0.00 0.00 0.00 49 1007.7
20260509203101 76 0.0 0.0 0.00 0.00 0.00 46 1007.7
20260509202548 77 0.0 0.0 0.00 0.00 0.00 48 1007.7
20260509202048 77 0.0 0.0 0.00 0.00 0.00 47 1007.8
20260509201558 77 0.0 0.0 0.00 0.00 0.00 43 1007.8
20260509201048 76 0.0 0.0 0.00 0.00 0.00 45 1007.8
20260509200548 77 0.0 0.0 0.00 0.00 0.00 45 1007.8
20260509200055 77 0.0 0.0 0.00 0.00 0.00 45 1007.9
20260509195548 76 0.0 0.0 0.00 0.00 0.00 44 1007.9
20260509195047 76 0.0 0.0 0.00 0.00 0.00 46 1008.0
20260509194601 77 0.0 0.0 0.00 0.00 0.00 47 1008.1
20260509194047 76 0.0 0.0 0.00 0.00 0.00 47 1008.2
20260509193547 75 0.0 0.0 0.00 0.00 0.00 49 1008.3
20260509193058 74 0.0 0.0 0.00 0.00 0.00 52 1008.3
20260509192547 74 0.0 0.0 0.00 0.00 0.00 54 1008.5
20260509192047 73 0.0 0.0 0.00 0.00 0.00 56 1008.6
20260509191604 72 0.0 0.0 0.00 0.00 0.00 54 1008.6
20260509191049 73 0.0 0.0 0.00 0.00 0.00 53 1008.6
20260509190552 74 0.0 0.0 0.00 0.00 0.00 51 1008.7
20260509190053 74 0.0 0.0 0.00 0.00 0.00 56 1008.8
20260509185548 74 0.0 0.0 0.00 0.00 0.00 56 1008.8
20260509185048 72 0.0 0.0 0.00 0.00 0.00 58 1008.8
20260509184601 71 0.0 0.0 0.00 0.00 0.00 59 1008.9
20260509184048 71 0.0 0.0 0.00 0.00 0.00 61 1009.1
20260509183552 71 0.0 0.0 0.00 0.00 0.00 58 1009.2
20260509183101 72 0.0 0.0 0.00 0.00 0.00 58 1009.1
20260509182547 71 0.0 0.0 0.00 0.00 0.00 59 1009.3
20260509182048 70 0.0 0.0 0.00 0.00 0.00 61 1009.5
20260509181559 71 0.0 0.0 0.00 0.00 0.00 59 1009.6
20260509181047 71 0.0 0.0 0.00 0.00 0.00 59 1009.7
20260509180548 70 0.0 0.0 0.00 0.00 0.00 60 1009.7
20260509180116 70 0.0 0.0 0.00 0.00 0.00 61 1009.8
20260509175551 70 0.0 0.0 0.00 0.00 0.00 60 1009.7
20260509175046 69 0.0 0.0 0.00 0.00 0.00 60 1009.8
20260509174555 68 0.0 0.0 0.00 0.00 0.00 60 1009.9
20260509174045 68 0.0 0.0 0.00 0.00 0.00 61 1009.8
20260509173547 69 0.0 0.0 0.00 0.00 0.00 60 1010.0
20260509173106 69 0.0 0.0 0.00 0.00 0.00 60 1010.0
20260509172548 68 0.0 0.0 0.00 0.00 0.00 61 1010.2
20260509172048 68 0.0 0.0 0.00 0.00 0.00 63 1010.1
20260509171556 68 0.0 0.0 0.00 0.00 0.00 61 1010.1
20260509171047 68 0.0 0.0 0.00 0.00 0.00 61 1010.1
20260509170548 68 0.0 0.0 0.00 0.00 0.00 62 1010.1
20260509170057 68 0.0 0.0 0.00 0.00 0.00 60 1010.1
20260509165546 68 0.0 0.0 0.00 0.00 0.00 59 1010.1
20260509165046 68 0.0 0.0 0.00 0.00 0.00 59 1010.0
20260509164555 68 0.0 0.0 0.00 0.00 0.00 60 1010.0
20260509164047 69 0.0 0.0 0.00 0.00 0.00 57 1010.0
20260509163550 71 0.0 0.0 0.00 0.00 0.00 56 1010.1
20260509163059 69 0.0 0.0 0.00 0.00 0.00 58 1010.2
20260509162548 69 0.0 0.0 0.00 0.00 0.00 61 1010.3
20260509162047 68 0.0 0.0 0.00 0.00 0.00 61 1010.4
20260509161603 67 0.0 0.0 0.00 0.00 0.00 60 1010.5
20260509161048 67 0.0 0.0 0.00 0.00 0.00 59 1010.5